C/2018 V2 ( ATLAS )

Japanese version
Home page
Updated on September 17, 2019

---------------------------------------------------------------------

* Profile

Discovery Date November 2, 2018
Magnitude 19.1 mag
Discoverer Asteroid Terrestrial-impact Last Alert System (ATLAS) search program

* Orbital Elements

Epoch 2018 Nov. 18.0 TT = JDT 2458440.5                                         
T 2018 Nov. 26.99182 TT                                 Williams                
q   2.4748628            (2000.0)            P               Q                  
n   0.00765442     Peri.  318.66595     +0.78424559     +0.62012918             
a  25.4992788      Node   356.78995     +0.62032912     -0.78304946             
e   0.9029438      Incl.  159.11066     +0.01227341     -0.04767962             
P 129                                                                           
From 179 observations 2018 Oct. 18-2019 July 7, mean residual 0".6.             

* Magnitudes Graph

        m1 = 14.2 + 5 log d + 10.0 log r

---------------------------------------------------------------------

The orbital elements are published on M.P.E.C. 2019-Q03.
The magnitudes graphs are made with Comet for Windows.

---------------------------------------------------------------------

Copyright(C) Seiichi Yoshida (comet@aerith.net). All rights reserved.